Wetbulb
57.67 57.95 58.47 59.51 60.46 60.42 60.68 60.59 60.65 60.51 59.98 59.29 58.60 58.91 58.56 58.38 58.96 55.65 50.66 56.70 58.53 64.33 62.67 57.74 56.04 56.27 53.62 52.45 54.26 51.42 44.88 41.84 43.27 44.33 46.42 48.31 46.56 47.99 50.15 50.72 50.32 51.89 53.15 55.69 59.71
57.00 57.46 58.08 58.69 60.03 60.20 60.20 60.45 60.51 60.57 60.31 59.69 59.05 59.17 58.14 58.51 53.26 50.19 56.02 61.08 62.68 64.17 57.14 54.20 51.28 54.76 49.04 49.44 52.54 47.28 43.15 44.60 47.60 47.63 47.20 48.36 47.35 47.76 47.68 49.24 48.75 51.12 56.67 58.59 59.54
55.79 56.60 57.33 58.11 58.94 59.88 60.11 60.13 59.98 60.14 60.24 60.07 59.64 59.07 59.07 56.66 44.64 42.94 56.40 58.74 61.60 63.30 58.07 55.68 54.64 53.40 48.13 48.26 49.27 46.96 43.54 46.54 48.57 49.44 49.18 49.05 47.56 49.72 46.76 45.69 49.26 50.38 51.28 56.84 56.37
54.53 55.47 56.33 57.16 58.01 58.70 59.72 59.85 59.92 59.80 60.00 59.87 59.66 59.14 58.48 51.52 29.85 47.45 60.59 60.28 61.47 60.19 56.22 52.82 51.84 48.77 46.14 44.93 49.22 43.99 48.89 48.87 50.04 49.97 49.00 48.64 50.09 49.10 47.29 48.90 50.81 51.01 52.88 57.08 57.14
53.96 53.79 54.65 55.70 56.85 57.96 58.74 59.44 59.88 59.68 59.42 59.63 59.56 59.04 52.84 44.46 43.73 51.75 56.91 56.78 58.85 58.21 53.37 50.55 49.88 48.66 44.99 45.62 46.66 46.53 47.67 50.02 50.81 49.45 48.55 49.47 49.08 49.21 48.96 52.40 52.08 53.23 53.09 56.73 57.51
53.09 53.24 53.37 54.46 55.44 56.89 57.79 58.60 59.16 59.82 59.19 59.35 59.32 58.39 47.40 40.16 50.35 49.88 50.62 58.84 56.47 55.29 52.24 50.86 49.28 51.36 46.93 45.62 45.10 45.35 47.68 47.99 48.14 49.11 48.59 47.43 46.92 48.62 49.17 52.35 52.52 52.45 52.42 55.11 57.11
51.41 52.28 53.06 53.62 54.43 55.61 56.97 57.81 58.56 59.02 59.44 59.17 59.30 54.77 48.00 44.55 49.17 48.64 50.40 50.66 56.18 54.50 51.19 52.69 52.61 49.44 48.59 45.64 48.55 46.46 43.07 44.65 44.34 45.84 45.97 47.72 44.36 45.29 49.47 50.84 51.22 51.27 51.44 51.85 54.28
50.58 51.75 51.62 52.78 53.94 55.10 55.99 56.89 57.77 58.36 58.89 58.81 58.88 53.06 45.06 52.44 52.38 49.63 48.94 48.49 55.93 55.21 53.73 53.61 53.26 49.93 47.06 48.50 45.39 42.02 41.21 36.87 42.74 45.47 46.18 46.50 39.43 42.50 48.12 49.22 49.71 50.29 49.75 49.87 50.53
50.27 50.79 50.90 51.50 52.62 53.86 55.03 56.01 56.81 57.85 58.76 58.49 54.10 50.35 44.76 53.85 47.20 49.41 48.45 45.90 54.37 54.36 53.61 54.98 51.75 46.80 46.02 40.71 37.40 37.20 29.88 34.80 38.20 44.35 43.80 43.70 39.39 42.91 44.76 47.29 47.09 47.12 47.00 46.85 47.32
49.89 49.90 50.45 51.19 51.76 52.94 54.17 54.81 55.48 55.63 54.88 54.58 53.31 46.55 47.10 44.44 46.97 47.37 47.34 47.85 49.85 51.74 50.96 49.68 46.13 41.36 41.96 41.66 28.08 31.57 31.94 34.72 34.57 38.86 41.47 40.15 40.54 43.12 44.20 43.56 43.58 43.79 44.83 45.54 46.65
49.04 49.08 49.98 50.54 51.13 52.54 51.77 50.84 46.38 44.65 47.68 43.38 45.92 44.52 45.69 47.78 48.55 45.19 47.22 46.01 46.67 47.53 41.20 44.93 38.34 35.28 38.11 41.16 36.97 33.91 33.77 34.41 34.15 40.63 39.41 39.12 39.94 42.94 44.09 41.58 41.83 43.92 42.34 43.44 45.61
47.93 48.67 49.26 50.19 51.03 51.92 50.71 45.41 45.60 45.60 39.13 46.10 47.71 47.38 47.75 47.05 41.15 42.88 47.22 40.94 43.85 39.53 41.33 40.97 36.15 37.65 40.21 40.90 39.55 35.84 33.29 32.76 36.71 39.60 38.68 36.72 36.79 39.98 41.08 41.11 41.42 41.97 41.73 42.25 43.92
48.23 48.18 48.77 49.63 50.38 49.21 46.59 45.66 50.07 48.54 39.99 41.13 45.52 45.92 45.08 45.74 40.71 40.92 44.24 42.35 42.16 40.02 39.74 33.69 34.69 40.69 39.15 38.42 38.93 38.46 35.96 31.72 32.81 36.74 36.97 35.84 35.73 36.13 39.82 40.31 41.84 42.73 43.37 43.71 44.29
48.05 47.98 48.44 49.28 45.36 44.87 43.64 47.87 50.99 49.16 32.77 34.89 40.59 44.68 46.26 45.02 39.63 44.90 45.15 44.47 41.39 38.39 38.93 36.76 38.41 37.72 36.47 36.49 39.43 34.20 39.90 37.17 35.81 33.61 27.92 34.22 23.88 31.32 34.77 37.53 39.86 41.87 42.15 43.04 44.83
47.45 47.67 48.33 49.20 43.83 42.25 44.35 48.45 49.93 45.71 20.18 36.32 39.14 48.61 46.78 41.00 39.69 40.43 44.92 43.74 37.81 37.04 38.61 34.20 35.50 35.14 35.51 36.32 40.17 34.07 40.61 39.10 35.79 32.48 30.63 30.72 28.73 29.17 34.29 35.18 38.08 40.21 41.63 42.59 42.97
47.34 47.72 48.24 46.29 45.23 45.95 47.16 48.74 46.09 29.83 19.68 33.00 39.82 40.03 39.38 40.61 39.44 39.07 40.17 44.35 42.48 38.15 38.60 35.27 38.54 38.57 37.40 39.11 40.44 39.53 36.47 35.82 34.10 36.44 27.74 31.14 29.60 29.90 33.02 34.83 37.52 40.71 42.47 41.83 41.61
47.77 48.05 46.47 46.42 41.11 46.26 47.16 43.73 27.89 22.15 32.98 30.64 33.83 38.61 37.66 35.86 36.82 37.34 35.87 36.64 34.89 31.96 32.59 35.63 34.14 36.81 40.26 36.49 38.58 38.60 33.91 22.93 23.95 26.45 23.48 29.65 29.03 32.21 34.25 36.80 37.98 39.27 41.18 41.04 42.52
47.87 47.67 46.45 45.45 45.82 46.38 43.60 34.18 21.13 27.81 26.88 35.26 36.29 37.10 34.01 35.59 35.99 35.87 33.66 33.10 37.99 32.48 30.11 28.75 26.56 34.80 37.80 37.95 35.14 37.02 34.62 23.25 14.65 19.20 23.99 29.89 28.13 32.42 38.08 41.39 42.37 41.28 40.24 41.49 41.39
47.57 43.62 43.01 44.21 45.98 44.92 36.17 24.64 23.90 26.50 32.64 33.68 34.53 32.13 32.31 34.83 34.94 34.34 32.97 33.10 37.10 35.62 26.22 27.84 27.97 34.72 37.53 39.26 39.71 35.32 32.97 35.24 27.76 24.96 21.19 26.19 29.97 36.61 38.63 38.40 38.60 39.02 39.37 39.21 39.85
40.55 39.81 39.33 45.18 45.47 38.01 28.27 26.64 30.01 33.90 34.85 35.71 29.41 32.20 29.24 31.70 32.16 32.14 31.67 35.52 35.93 38.14 33.56 30.14 24.34 32.54 35.87 38.99 39.27 35.85 38.69 30.55 31.32 20.29 20.21 24.08 26.37 29.56 31.69 34.58 36.53 36.54 37.36 38.39 38.52
39.94 33.53 37.95 45.16 42.08 31.14 23.70 24.67 28.94 32.63 35.00 33.52 30.25 31.75 32.36 31.31 32.89 31.04 30.82 33.28 37.43 37.09 36.43 31.26 28.09 27.41 35.39 33.81 32.86 34.26 32.61 32.00 31.01 30.53 22.56 18.06 24.71 33.65 35.65 36.56 35.54 36.39 37.85 37.42 37.20
34.98 26.52 38.72 43.31 28.78 30.23 25.29 27.91 33.37 32.28 33.92 33.43 35.09 33.33 32.18 33.48 32.75 32.31 30.42 32.09 38.66 38.03 32.33 31.57 28.29 25.61 29.47 32.54 37.26 37.32 34.01 34.19 27.37 24.65 28.96 26.44 25.71 34.93 35.94 37.14 36.61 36.93 37.00 36.98 37.26
31.97 30.00 41.35 40.28 23.97 24.44 27.32 27.97 30.72 30.70 31.87 32.35 31.61 34.68 34.16 32.22 30.44 32.92 32.36 36.35 37.90 35.72 33.87 34.19 28.57 21.16 25.72 29.42 30.95 32.64 34.53 35.16 32.26 27.83 25.86 23.60 26.25 34.39 34.64 34.78 36.00 35.58 35.52 35.34 34.68
31.13 21.88 31.75 35.59 27.04 23.18 22.81 23.19 24.51 32.33 31.02 33.13 29.97 32.57 33.17 32.78 33.71 31.80 31.06 33.90 36.68 37.24 40.32 38.91 30.09 28.19 23.27 25.70 30.24 29.88 32.76 34.20 33.12 27.76 27.97 27.95 28.15 29.96 30.61 31.56 33.44 34.11 34.29 33.05 33.58
33.19 27.65 23.52 23.81 27.22 15.74 23.40 24.81 25.69 24.61 28.95 31.74 28.88 29.71 29.86 29.76 32.03 31.19 32.77 33.47 35.64 38.66 38.42 36.60 29.00 28.49 29.49 27.60 29.86 30.31 31.37 32.67 31.14 32.44 27.59 30.01 29.61 35.03 32.45 32.61 32.77 32.98 30.99 30.41 28.50
30.21 28.01 31.34 23.52 20.71 22.42 20.87 21.40 25.35 26.60 27.73 26.58 27.11 30.60 30.71 27.05 30.89 30.54 32.30 32.46 31.59 35.41 35.66 36.99 27.99 28.61 21.82 27.91 29.94 26.47 30.80 32.35 33.26 33.49 32.77 29.82 30.18 34.40 34.53 31.51 29.40 29.84 29.36 26.92 25.89
35.77 31.74 31.33 27.42 18.46 24.36 21.62 23.36 25.45 27.52 30.00 31.24 30.66 30.15 29.54 30.89 33.39 37.03 38.32 37.52 35.43 33.79 34.04 33.32 31.59 28.97 24.71 28.04 28.04 22.63 28.33 30.78 32.08 34.23 34.29 29.92 34.52 33.32 27.85 27.68 26.07 24.55 24.21 23.18 23.10
MSLP
1017.67 1017.76 1017.84 1017.93 1017.93 1018.10 1018.29 1018.54 1018.82 1019.01 1019.19 1019.49 1019.70 1019.84 1019.89 1019.89 1019.82 1019.77 1019.51 1018.45 1018.14 1017.88 1017.81 1017.69 1017.39 1017.26 1017.11 1017.65 1017.74 1018.05 1018.94 1019.08 1018.59 1018.20 1017.19 1016.75 1016.69 1016.70 1016.54 1016.68 1016.85 1016.97 1017.15 1017.30 1017.58
1017.57 1017.47 1017.51 1017.56 1017.59 1017.74 1017.98 1018.18 1018.45 1018.71 1019.02 1019.29 1019.49 1019.76 1019.93 1019.95 1019.95 1019.42 1018.59 1018.10 1017.98 1018.09 1018.19 1018.02 1017.93 1017.86 1017.89 1018.06 1018.29 1018.60 1019.22 1018.80 1018.11 1017.74 1017.26 1016.99 1016.87 1016.78 1016.83 1016.94 1017.07 1017.11 1017.09 1017.32 1017.70
1017.20 1017.25 1017.22 1017.27 1017.34 1017.48 1017.62 1017.81 1018.18 1018.50 1018.80 1019.11 1019.38 1019.68 1019.95 1020.00 1020.02 1018.46 1017.53 1017.44 1017.59 1018.03 1018.41 1018.28 1018.22 1018.27 1018.43 1018.35 1018.47 1018.82 1019.01 1018.49 1017.78 1017.47 1017.28 1017.21 1017.07 1017.07 1017.07 1017.31 1016.98 1017.07 1017.19 1017.81 1018.12
1016.95 1016.98 1016.99 1017.04 1017.08 1017.19 1017.29 1017.49 1017.74 1018.13 1018.51 1018.86 1019.24 1019.57 1019.88 1020.18 1019.58 1017.56 1017.45 1017.43 1017.35 1018.04 1018.46 1018.39 1018.56 1018.70 1018.83 1018.79 1018.52 1018.86 1018.61 1018.42 1017.87 1017.47 1017.40 1017.47 1017.40 1017.39 1017.44 1017.04 1016.84 1017.07 1017.47 1017.87 1018.25
1016.61 1016.66 1016.83 1016.86 1016.83 1016.85 1016.96 1017.13 1017.38 1017.71 1018.11 1018.56 1018.96 1019.44 1020.06 1020.23 1019.21 1017.73 1017.58 1017.25 1017.26 1018.09 1018.44 1018.57 1018.73 1018.77 1018.97 1018.87 1018.78 1018.77 1018.59 1018.37 1017.95 1017.80 1017.71 1017.73 1017.77 1017.74 1017.56 1017.05 1017.13 1017.36 1017.53 1017.89 1018.19
1016.17 1016.30 1016.60 1016.61 1016.57 1016.53 1016.62 1016.81 1017.09 1017.35 1017.69 1018.10 1018.64 1019.25 1019.92 1019.72 1018.27 1018.02 1017.72 1017.56 1017.69 1018.16 1018.59 1018.59 1018.63 1018.67 1018.90 1018.91 1018.93 1018.44 1018.45 1018.43 1018.31 1018.23 1018.11 1018.08 1017.98 1017.87 1017.41 1017.14 1017.40 1017.63 1017.80 1018.05 1018.24
1015.94 1016.07 1016.14 1016.21 1016.29 1016.20 1016.26 1016.49 1016.68 1017.03 1017.32 1017.62 1018.17 1018.94 1019.11 1018.25 1017.80 1017.92 1017.89 1017.97 1017.85 1017.98 1018.37 1018.54 1018.59 1018.73 1018.86 1019.03 1018.80 1018.75 1018.96 1018.86 1018.73 1018.60 1018.45 1018.53 1018.50 1017.34 1017.17 1017.24 1017.59 1017.88 1017.98 1018.07 1018.05
1015.59 1015.69 1015.68 1015.85 1015.95 1015.87 1015.99 1016.14 1016.31 1016.59 1017.01 1017.32 1017.82 1018.58 1017.73 1017.28 1017.49 1017.93 1017.99 1017.99 1017.83 1018.10 1018.28 1018.58 1018.61 1018.99 1019.14 1019.19 1019.24 1019.37 1019.53 1019.69 1018.88 1018.69 1018.46 1018.71 1017.33 1017.56 1017.35 1017.71 1017.89 1017.90 1018.00 1017.97 1017.80
1014.95 1015.10 1015.26 1015.48 1015.58 1015.67 1015.75 1015.84 1016.15 1016.33 1016.70 1017.13 1017.96 1018.02 1017.02 1016.71 1017.43 1017.50 1018.14 1018.49 1018.23 1018.38 1018.62 1018.69 1018.95 1019.38 1019.53 1019.90 1020.21 1020.01 1019.84 1019.87 1019.49 1018.74 1018.72 1018.86 1017.92 1017.51 1017.27 1017.78 1018.23 1018.34 1018.05 1017.89 1017.69
1014.38 1014.48 1014.73 1014.93 1015.20 1015.41 1015.59 1015.79 1015.98 1016.36 1016.66 1017.23 1017.42 1018.00 1016.63 1016.29 1016.94 1017.40 1017.74 1018.24 1018.43 1018.68 1019.11 1019.20 1019.45 1019.57 1019.60 1019.95 1019.58 1020.21 1020.59 1020.14 1019.64 1019.03 1018.93 1018.98 1018.29 1017.79 1017.58 1017.73 1018.07 1018.22 1017.99 1017.79 1017.26
1013.64 1014.02 1014.16 1014.49 1014.86 1015.11 1015.64 1015.91 1016.19 1016.25 1016.12 1014.90 1014.93 1015.24 1015.34 1016.07 1016.40 1016.96 1017.26 1018.34 1018.48 1018.63 1019.05 1019.21 1019.64 1017.94 1018.54 1019.32 1019.82 1020.03 1020.22 1020.22 1019.79 1019.23 1019.27 1018.98 1018.58 1017.32 1017.36 1017.59 1017.70 1017.53 1017.58 1017.32 1016.87
1013.06 1013.38 1013.84 1013.97 1014.22 1014.49 1015.00 1014.58 1014.09 1014.88 1015.23 1015.00 1014.91 1015.11 1015.08 1015.38 1016.30 1016.70 1016.81 1017.82 1018.27 1018.44 1019.20 1019.55 1017.72 1018.53 1018.98 1019.53 1020.04 1020.28 1020.38 1020.34 1020.14 1019.56 1019.56 1019.18 1018.38 1017.46 1016.96 1016.64 1016.64 1016.74 1016.78 1016.53 1016.26
1011.94 1012.60 1013.21 1013.53 1013.74 1014.18 1014.14 1014.08 1014.32 1014.49 1014.77 1013.86 1013.88 1014.21 1014.87 1015.47 1015.22 1015.76 1016.26 1016.80 1017.16 1017.98 1018.13 1018.09 1017.55 1018.19 1018.90 1019.45 1019.89 1020.01 1019.92 1020.38 1020.37 1019.94 1019.75 1019.56 1017.44 1016.98 1015.53 1015.52 1015.65 1015.71 1015.59 1015.76 1015.51
1011.13 1011.81 1012.63 1013.01 1013.98 1013.52 1013.45 1013.90 1014.57 1014.76 1014.19 1013.15 1013.16 1013.21 1014.17 1015.02 1015.38 1014.75 1015.12 1015.76 1016.92 1016.98 1018.19 1018.37 1017.78 1018.30 1018.39 1018.50 1019.12 1019.64 1019.67 1020.41 1020.67 1020.96 1020.87 1020.19 1017.79 1016.14 1015.52 1015.32 1015.24 1015.13 1015.12 1015.05 1014.81
1010.30 1011.07 1011.82 1012.41 1012.53 1012.73 1012.47 1013.67 1014.48 1014.60 1012.18 1011.31 1011.60 1011.76 1012.86 1013.90 1014.24 1015.13 1014.97 1015.69 1015.93 1016.56 1017.63 1016.61 1017.24 1018.31 1018.40 1017.86 1018.90 1018.80 1019.17 1020.01 1020.70 1021.23 1021.39 1020.59 1020.31 1015.76 1015.57 1015.30 1015.12 1014.75 1014.66 1014.32 1014.43
1009.74 1010.43 1011.12 1011.68 1012.16 1012.19 1012.75 1013.00 1014.37 1012.80 1009.77 1010.21 1010.32 1011.15 1012.66 1013.82 1014.09 1014.66 1015.12 1015.29 1015.61 1016.59 1016.63 1016.70 1016.91 1017.24 1016.92 1017.69 1018.11 1018.78 1019.61 1020.37 1020.88 1021.48 1021.10 1018.93 1020.35 1014.54 1015.09 1014.72 1014.69 1014.34 1014.05 1014.03 1014.10
1009.06 1009.64 1010.48 1010.96 1010.87 1011.79 1012.56 1012.82 1012.12 1009.31 1010.10 1009.57 1009.09 1009.91 1010.98 1012.31 1013.80 1013.73 1014.33 1015.09 1015.06 1015.82 1016.20 1017.00 1017.03 1017.00 1016.70 1017.36 1017.87 1018.41 1019.34 1020.65 1021.07 1020.90 1019.23 1019.22 1019.64 1014.51 1013.88 1013.85 1014.27 1014.30 1014.10 1014.31 1014.25
1008.60 1009.24 1009.69 1010.49 1011.34 1011.37 1012.27 1011.46 1008.81 1008.86 1009.56 1009.03 1008.85 1009.64 1009.80 1011.52 1012.88 1013.38 1013.78 1014.37 1014.62 1014.78 1015.55 1015.96 1016.64 1016.26 1015.89 1015.75 1016.23 1017.20 1017.89 1018.49 1019.67 1019.76 1019.14 1018.99 1017.72 1012.93 1013.30 1013.01 1013.30 1013.51 1013.95 1014.45 1014.91
1008.29 1009.15 1009.63 1010.16 1010.84 1011.42 1011.37 1009.50 1007.83 1007.93 1008.35 1008.34 1008.63 1008.86 1009.66 1010.64 1011.43 1012.10 1012.47 1012.58 1012.93 1013.60 1014.41 1015.46 1015.49 1014.73 1014.94 1015.26 1015.50 1015.99 1016.56 1017.33 1018.53 1019.73 1019.36 1017.92 1016.34 1014.04 1013.18 1013.40 1013.52 1013.73 1014.24 1014.87 1015.19
1008.86 1009.39 1009.52 1009.88 1010.57 1011.46 1010.92 1009.04 1008.56 1007.81 1007.61 1007.83 1007.78 1008.16 1008.51 1009.70 1010.60 1011.14 1011.71 1011.55 1011.93 1012.46 1013.10 1014.15 1015.14 1014.65 1015.21 1015.26 1015.02 1014.94 1015.92 1017.35 1017.83 1018.33 1018.54 1017.32 1016.35 1014.30 1013.46 1013.48 1013.78 1014.38 1014.77 1015.40 1015.67
1009.14 1009.44 1009.23 1009.47 1010.67 1011.24 1010.21 1009.52 1008.91 1008.16 1007.78 1007.03 1007.19 1007.80 1008.02 1008.58 1009.43 1009.72 1009.88 1010.47 1010.83 1011.83 1013.03 1013.65 1014.01 1015.04 1014.83 1014.08 1013.55 1015.04 1015.53 1016.12 1016.41 1017.34 1017.11 1016.75 1015.25 1013.77 1013.37 1013.64 1014.26 1014.79 1015.25 1015.75 1016.42
1009.34 1009.54 1009.26 1009.53 1010.54 1010.23 1010.21 1010.05 1009.43 1008.85 1008.04 1007.25 1007.08 1007.41 1008.21 1008.43 1008.76 1008.99 1009.09 1008.58 1009.50 1010.32 1011.71 1012.82 1013.60 1014.56 1014.03 1013.61 1013.45 1013.53 1013.72 1014.62 1015.33 1016.10 1016.17 1015.88 1014.60 1013.16 1013.07 1013.50 1014.12 1015.21 1015.83 1016.28 1016.91
1009.07 1009.42 1009.24 1009.24 1009.61 1009.92 1010.19 1009.94 1009.39 1009.24 1008.80 1008.07 1007.95 1007.56 1008.20 1008.55 1008.75 1008.81 1008.77 1008.37 1009.05 1010.16 1010.74 1011.99 1012.77 1014.06 1014.38 1014.17 1013.80 1013.37 1013.56 1014.12 1014.75 1015.05 1015.18 1015.37 1014.21 1013.74 1013.62 1014.14 1015.23 1015.97 1016.65 1017.28 1017.95
1009.06 1009.77 1009.61 1009.12 1009.67 1010.04 1010.13 1010.05 1009.71 1009.37 1009.06 1008.24 1008.26 1008.25 1008.96 1008.76 1008.49 1008.12 1008.37 1008.45 1008.85 1009.40 1010.28 1011.08 1011.55 1011.72 1011.66 1011.43 1012.08 1012.90 1012.67 1012.90 1013.49 1014.24 1013.79 1013.92 1014.04 1014.02 1014.48 1015.00 1015.79 1016.53 1017.48 1018.31 1019.07
1008.07 1008.47 1008.41 1009.24 1009.48 1009.52 1009.24 1008.90 1008.97 1009.05 1008.87 1008.49 1008.77 1008.50 1008.92 1008.52 1008.30 1008.24 1008.25 1008.42 1009.04 1009.05 1010.01 1010.66 1011.21 1011.77 1011.54 1011.60 1011.46 1011.40 1011.78 1012.46 1013.08 1012.61 1013.22 1013.09 1013.73 1013.48 1014.56 1015.54 1016.61 1017.44 1018.51 1019.41 1020.15
1007.14 1007.95 1008.34 1008.85 1008.51 1009.53 1009.88 1009.43 1008.66 1008.61 1008.44 1008.70 1008.29 1007.69 1008.21 1009.35 1008.68 1006.25 1006.42 1006.61 1007.50 1008.88 1009.21 1010.30 1010.78 1011.58 1011.80 1011.79 1011.66 1011.72 1011.66 1011.78 1011.90 1011.96 1013.03 1013.01 1013.37 1013.76 1014.94 1016.34 1017.73 1018.67 1019.51 1020.40 1021.23
1006.42 1006.96 1007.15 1008.06 1008.79 1009.24 1008.51 1007.62 1007.46 1007.77 1007.02 1006.70 1006.63 1007.45 1007.11 1007.36 1008.21 1006.85 1005.54 1005.78 1006.06 1006.96 1008.80 1009.93 1010.55 1011.39 1011.53 1012.08 1012.07 1011.91 1010.21 1010.98 1011.37 1011.62 1012.14 1012.81 1012.61 1014.48 1016.47 1017.81 1019.10 1019.96 1020.73 1021.49 1022.23
Wind_Speed
16 17 16 16 13 16 15 14 13 11 10 8 7 5 5 6 7 2 6 8 3 10 9 6 4 6 4 4 4 2 5 1 3 4 3 1 2 1 0 4 1 3 2 3 6
16 16 17 16 15 13 16 15 13 12 11 10 7 6 4 3 3 8 7 11 12 7 6 5 4 4 3 3 3 4 4 8 3 3 2 0 1 4 2 2 2 2 3 2 8
15 18 16 17 17 16 13 14 14 13 13 11 9 7 3 1 2 8 8 22 18 5 3 2 2 0 1 1 1 2 5 4 3 4 1 3 1 1 4 3 6 7 1 2 3
17 16 16 16 18 18 15 13 14 15 14 13 10 8 5 1 7 2 10 11 12 5 3 3 2 4 3 5 3 3 5 4 2 1 2 1 3 4 5 4 3 2 2 5 7
15 15 16 15 16 18 17 15 14 16 16 15 13 10 4 3 9 5 14 11 4 6 6 6 5 5 6 4 4 4 4 5 4 2 2 1 4 5 5 8 4 4 2 7 7
16 13 15 16 16 18 19 16 15 15 17 17 15 13 4 8 7 5 7 4 3 7 5 5 5 4 3 3 7 3 5 3 3 5 3 3 4 4 4 5 8 5 6 6 8
19 17 15 15 17 16 18 17 16 15 17 18 17 8 9 13 4 3 8 3 2 6 6 4 3 2 2 1 3 2 3 3 4 4 5 5 9 11 8 2 6 7 7 7 9
19 18 17 16 15 15 16 18 16 14 15 18 18 7 9 9 11 6 3 6 1 3 4 4 5 2 2 3 3 4 3 3 4 9 6 9 19 2 8 6 10 10 8 8 9
17 17 17 17 16 12 13 16 14 14 16 17 8 7 6 8 7 8 4 4 2 3 3 3 4 3 1 5 2 2 3 5 6 9 5 8 10 4 2 8 8 8 9 7 8
19 18 19 17 18 16 11 12 9 10 9 6 5 7 5 5 6 6 6 7 3 8 5 5 3 4 6 10 10 6 4 5 6 3 6 6 12 9 7 4 8 8 9 9 10
19 20 21 18 18 17 11 3 5 6 9 14 6 4 10 6 5 5 8 7 4 6 12 11 7 21 18 16 6 6 5 8 2 3 3 8 12 19 9 5 8 12 8 10 12
22 23 21 21 19 19 11 8 8 3 6 21 11 18 3 5 6 4 11 9 8 10 7 8 25 5 9 7 7 4 4 5 4 3 3 5 12 14 10 9 10 11 10 11 9
23 22 22 22 20 16 15 19 2 6 4 7 24 13 9 8 7 16 19 7 15 16 18 11 3 14 10 8 13 13 16 4 3 3 3 5 18 10 11 5 7 8 10 7 12
25 23 23 23 16 12 16 14 6 5 5 9 11 11 14 5 7 5 17 15 6 19 9 12 12 7 5 18 15 16 8 7 5 3 5 3 13 7 4 5 5 8 8 10 12
25 24 23 25 5 14 14 9 8 4 16 12 13 9 11 16 12 6 8 5 14 11 12 10 10 16 12 9 13 6 8 12 6 4 3 8 4 5 1 4 7 7 9 10 6
21 21 22 14 10 5 9 15 10 13 10 11 15 17 20 10 8 8 14 2 4 6 17 6 1 11 14 7 16 7 6 4 4 9 12 15 8 17 12 7 5 7 7 4 3
20 21 18 6 5 12 7 11 15 24 7 6 17 21 27 16 15 12 22 22 14 9 13 16 6 3 5 8 5 9 9 3 6 9 14 11 9 23 3 4 6 8 9 4 3
17 19 13 7 4 8 9 14 22 23 13 4 13 21 28 17 15 17 24 21 19 8 8 13 11 15 6 8 9 22 15 6 9 6 8 4 12 19 4 12 12 10 4 5 6
12 2 4 6 5 4 8 17 10 10 9 16 14 25 18 13 8 13 22 32 26 20 11 12 13 5 7 5 15 16 18 8 3 1 2 6 8 11 7 7 5 3 6 7 7
3 3 3 10 10 2 5 11 5 5 6 12 21 16 21 22 18 20 23 24 25 23 4 7 1 5 7 5 9 9 8 9 7 8 10 5 4 10 2 6 5 6 9 8 6
3 3 2 11 6 2 3 3 1 6 7 8 12 10 19 15 15 19 24 15 27 26 15 8 5 0 12 16 22 9 9 6 4 8 5 3 8 9 11 6 8 8 9 8 7
3 2 1 9 4 3 3 5 2 2 3 4 2 4 7 17 17 16 19 13 29 23 27 7 5 5 12 5 12 19 16 19 7 10 5 2 6 4 7 8 10 9 8 6 8
4 1 2 5 4 3 2 1 3 3 5 2 3 3 4 6 11 12 14 18 23 17 20 14 6 4 2 1 0 12 14 14 5 3 12 7 8 1 3 9 5 8 7 8 9
3 2 2 3 2 7 4 3 3 4 2 1 5 5 5 5 12 11 11 4 16 23 19 19 6 17 15 8 8 13 18 18 20 12 17 11 8 3 3 7 8 8 9 9 9
4 4 5 6 9 3 6 7 9 4 1 3 4 6 3 4 11 11 11 7 11 21 21 12 15 10 12 3 5 9 19 20 17 25 15 19 13 17 9 11 8 8 9 9 8
5 5 3 2 3 8 7 6 10 5 9 7 8 10 7 6 16 17 19 11 14 18 21 9 5 8 1 3 7 5 13 18 22 24 18 4 13 6 7 9 7 8 9 9 7
3 2 3 6 4 7 9 13 11 7 5 7 5 1 5 18 18 17 13 14 13 22 18 10 9 10 19 5 3 2 23 15 17 17 21 18 17 7 5 10 7 7 7 7 6
Wind_Direction
273 274 272 269 261 244 227 222 221 217 219 230 228 243 278 311 330 327 246 235 236 318 344 311 339 341 42 28 20 100 65 229 220 168 238 202 146 107 185 123 120 191 183 219 125
275 270 271 267 262 250 241 229 221 214 213 219 222 222 258 321 329 262 240 249 267 297 341 348 306 354 23 6 17 91 127 213 195 226 246 19 210 184 140 127 223 248 224 98 135
285 278 269 266 260 249 237 231 228 218 210 213 209 209 198 255 328 251 261 240 234 228 217 299 316 192 170 85 226 139 177 222 261 195 217 324 336 162 149 224 216 208 222 128 171
283 286 281 271 259 251 239 233 223 219 215 207 204 191 166 47 232 146 16 353 238 203 208 170 141 149 169 187 195 179 216 193 254 217 120 217 341 312 176 221 273 124 94 177 196
272 282 287 278 273 254 240 234 230 219 211 207 198 173 125 205 255 299 334 328 141 140 181 163 154 149 182 195 160 207 205 189 242 219 264 154 235 231 246 264 266 331 262 212 217
276 273 277 278 276 262 249 237 233 223 211 201 199 163 139 227 237 357 334 53 125 148 172 149 188 193 191 215 176 216 197 219 223 249 256 232 264 162 242 246 255 247 231 245 225
274 273 270 273 272 267 254 244 234 229 215 202 197 171 218 219 203 60 24 351 188 165 153 190 122 164 155 171 231 229 292 335 206 220 242 163 277 232 222 220 244 232 253 261 240
267 270 267 266 266 259 257 248 237 230 222 207 194 179 236 198 232 314 20 338 145 193 135 132 83 76 177 283 22 171 166 195 237 174 240 142 260 153 217 195 246 260 259 262 261
257 266 264 256 257 263 259 253 240 232 227 216 192 187 239 147 159 229 162 251 154 78 92 112 101 196 173 108 12 273 215 221 300 204 164 187 269 265 175 172 234 262 271 268 276
265 256 260 251 253 248 249 247 242 246 236 244 221 183 195 183 152 154 184 173 253 127 139 169 161 190 190 185 211 192 197 235 211 260 218 208 260 253 265 231 239 241 263 284 278
258 256 259 249 244 244 242 216 180 217 206 210 166 171 136 140 98 173 152 141 231 134 188 188 185 211 192 204 211 179 186 204 231 260 208 234 247 264 260 222 255 261 242 248 260
247 252 246 247 245 241 223 227 198 126 201 223 233 207 127 178 126 175 139 148 177 183 141 183 226 153 168 188 201 180 190 214 295 242 210 289 266 263 248 234 218 242 249 244 252
240 242 241 244 240 236 224 226 273 45 245 204 218 208 171 189 185 185 173 166 182 184 194 197 209 162 168 178 205 223 224 142 185 356 300 349 288 239 259 226 220 239 234 244 238
236 229 233 234 235 224 227 213 191 83 243 203 186 213 194 167 225 178 195 165 175 203 172 234 236 192 189 204 186 224 176 164 182 97 241 130 278 231 229 249 207 241 239 237 247
231 230 229 221 208 203 222 177 156 151 231 183 169 141 177 193 121 220 190 156 182 178 167 211 159 198 214 200 180 219 152 194 163 175 30 244 287 288 242 284 267 259 252 247 271
224 221 222 227 207 191 202 162 174 220 217 172 149 168 162 183 196 132 174 112 141 155 214 198 220 175 208 160 181 133 77 80 114 221 242 231 199 264 231 197 218 248 253 294 276
227 223 217 190 244 194 197 187 209 221 154 202 167 171 175 174 188 168 176 193 182 172 197 208 216 238 156 144 130 164 133 182 214 209 239 150 177 246 266 278 238 240 244 148 126
220 219 218 183 154 176 207 203 225 207 202 170 166 179 186 159 187 184 171 189 202 179 161 188 212 208 196 191 184 201 197 163 195 207 232 183 214 237 212 241 269 214 201 142 124
215 179 189 183 175 176 203 213 223 212 153 157 171 174 184 180 147 164 187 189 189 183 160 183 228 241 173 160 168 190 213 197 108 51 85 213 281 304 237 250 260 280 121 150 138
101 143 196 158 145 136 228 216 253 152 155 165 177 187 182 180 175 184 184 198 191 196 158 198 196 186 171 122 235 170 140 192 216 208 230 258 256 234 310 261 195 151 150 152 136
89 144 239 143 107 194 224 255 170 310 295 185 180 162 202 178 185 182 180 181 189 190 195 161 137 324 137 204 195 163 206 213 178 194 204 195 249 217 226 189 172 164 145 150 131
120 170 237 138 190 208 163 163 169 218 304 65 83 122 165 200 197 185 187 186 194 187 193 173 134 155 199 327 210 212 213 204 199 207 209 118 266 303 226 191 156 154 148 138 92
153 161 175 163 218 169 134 236 132 161 278 132 135 181 110 195 211 197 205 210 188 179 182 178 199 128 37 33 248 205 217 210 188 75 200 198 232 90 144 125 122 130 107 68 70
129 161 213 216 151 154 138 224 205 199 214 108 122 98 193 234 202 201 192 160 179 191 190 175 189 207 213 228 132 198 207 208 207 224 227 222 243 240 184 155 149 131 94 88 77
177 203 189 189 199 185 171 185 191 175 77 150 184 184 169 258 203 212 190 149 185 191 194 192 215 208 229 158 195 207 208 207 210 222 214 229 218 235 185 172 153 109 108 92 72
154 159 148 220 120 153 198 216 210 189 156 205 221 160 154 226 272 190 182 155 182 188 191 189 231 180 207 142 177 186 206 205 210 222 224 247 234 172 139 98 106 109 111 97 78
127 241 127 180 140 164 211 205 208 150 247 200 218 74 195 236 239 267 183 180 161 172 183 188 179 178 222 147 81 271 220 197 213 214 206 215 219 157 110 121 125 116 107 101 82